Location: Gull Harbor
(47.1000°N, 122.9000°W)
Time: 17:59:30
(UTC-08:00)

Envisat - Pass Details

Date: 28 October 2019
Orbit: 764 x 766 km, 98.1° (Epoch: 17 November)

Event Time Altitude Azimuth Distance (km) Brightness Sun altitude
Rises 20:34:13 0° 212° (SSW) 3,222 6.5 -26.5°
Reaches altitude 10° 20:37:23 10° 233° (SW) 2,301 6.0 -27.0°
Maximum altitude 20:40:31 16° 271° (W) 1,907 5.9 -27.5°
Drops below altitude 10° 20:43:39 10° 310° (NW) 2,311 6.2 -28.1°
Sets 20:46:52 0° 331° (NNW) 3,243 6.8 -28.6°
